TimeEDT,TemperatureF,Dew PointF,Humidity,Sea Level PressureIn,VisibilityMPH,Wind Direction,Wind SpeedMPH,Gust SpeedMPH,PrecipitationIn,Events,Conditions,WindDirDegrees,DateUTC
12:11 AM,60.8,44.6,55,29.98,10.0,Calm,Calm,-,N/A,,Scattered Clouds,0,2013-05-09 04:11:00
12:31 AM,59.0,46.4,63,29.98,10.0,Calm,Calm,-,N/A,,Clear,0,2013-05-09 04:31:00
12:52 AM,59.0,46.4,63,29.97,10.0,Calm,Calm,-,N/A,,Scattered Clouds,0,2013-05-09 04:52:00
1:12 AM,57.2,46.4,67,29.97,10.0,Calm,Calm,-,N/A,,Clear,0,2013-05-09 05:12:00
1:32 AM,57.2,46.4,67,29.96,10.0,Calm,Calm,-,N/A,,Clear,0,2013-05-09 05:32:00
1:52 AM,55.4,46.4,72,29.96,10.0,Calm,Calm,-,N/A,,Clear,0,2013-05-09 05:52:00
2:12 AM,53.6,44.6,72,29.96,10.0,Calm,Calm,-,N/A,,Clear,0,2013-05-09 06:12:00
2:32 AM,55.4,46.4,72,29.94,10.0,Calm,Calm,-,N/A,,Clear,0,2013-05-09 06:32:00
2:52 AM,55.4,46.4,72,29.94,10.0,Calm,Calm,-,N/A,,Clear,0,2013-05-09 06:52:00
3:12 AM,53.6,46.4,77,29.94,10.0,Calm,Calm,-,N/A,,Clear,0,2013-05-09 07:12:00
3:32 AM,53.6,44.6,72,29.93,10.0,Calm,Calm,-,N/A,,Clear,0,2013-05-09 07:32:00
3:52 AM,53.6,46.4,77,29.93,10.0,Calm,Calm,-,N/A,,Clear,0,2013-05-09 07:52:00
4:12 AM,51.8,44.6,76,29.93,10.0,ENE,4.6,-,N/A,,Clear,70,2013-05-09 08:12:00
4:32 AM,51.8,44.6,76,29.93,10.0,Calm,Calm,-,N/A,,Clear,0,2013-05-09 08:32:00
4:52 AM,51.8,44.6,76,29.93,10.0,Calm,Calm,-,N/A,,Clear,0,2013-05-09 08:52:00
5:13 AM,51.8,44.6,76,29.92,10.0,Calm,Calm,-,N/A,,Clear,0,2013-05-09 09:13:00
5:33 AM,50.0,44.6,82,29.93,10.0,Calm,Calm,-,N/A,,Scattered Clouds,0,2013-05-09 09:33:00
5:53 AM,51.8,44.6,76,29.94,10.0,Calm,Calm,-,N/A,,Scattered Clouds,0,2013-05-09 09:53:00
6:13 AM,51.8,44.6,76,29.94,10.0,Calm,Calm,-,N/A,,Overcast,0,2013-05-09 10:13:00
6:33 AM,51.8,44.6,76,29.95,10.0,Calm,Calm,-,N/A,,Overcast,0,2013-05-09 10:33:00
6:53 AM,51.8,44.6,76,29.96,10.0,Calm,Calm,-,N/A,,Mostly Cloudy,0,2013-05-09 10:53:00
7:13 AM,53.6,46.4,77,29.96,10.0,Calm,Calm,-,N/A,,Mostly Cloudy,0,2013-05-09 11:13:00
7:33 AM,55.4,46.4,72,29.96,10.0,Calm,Calm,-,N/A,,Mostly Cloudy,0,2013-05-09 11:33:00
7:53 AM,55.4,48.2,77,29.96,10.0,Calm,Calm,-,N/A,,Overcast,0,2013-05-09 11:53:00
8:14 AM,59.0,50.0,72,29.97,10.0,Calm,Calm,-,N/A,,Overcast,0,2013-05-09 12:14:00
8:34 AM,60.8,50.0,68,29.97,10.0,Calm,Calm,-,N/A,,Mostly Cloudy,0,2013-05-09 12:34:00
8:54 AM,62.6,51.8,68,29.97,10.0,Calm,Calm,-,N/A,,Mostly Cloudy,0,2013-05-09 12:54:00
9:14 AM,62.6,51.8,68,29.97,10.0,Calm,Calm,-,N/A,,Overcast,0,2013-05-09 13:14:00
9:34 AM,64.4,51.8,64,29.97,10.0,Calm,Calm,-,N/A,,Mostly Cloudy,0,2013-05-09 13:34:00
9:54 AM,68.0,51.8,56,29.97,10.0,Calm,Calm,-,N/A,,Mostly Cloudy,0,2013-05-09 13:54:00
10:14 AM,68.0,51.8,56,29.97,10.0,Calm,Calm,-,N/A,,Mostly Cloudy,0,2013-05-09 14:14:00
10:35 AM,68.0,51.8,56,29.96,10.0,Calm,Calm,-,N/A,,Scattered Clouds,0,2013-05-09 14:35:00
10:55 AM,69.8,51.8,53,29.96,10.0,SSW,4.6,-,N/A,,Clear,210,2013-05-09 14:55:00
11:35 AM,73.4,53.6,50,29.96,10.0,South,3.5,-,N/A,,Clear,170,2013-05-09 15:35:00
11:55 AM,75.2,53.6,47,29.97,10.0,SW,3.5,-,N/A,,Clear,230,2013-05-09 15:55:00
12:15 PM,77.0,46.4,34,29.96,10.0,Calm,Calm,-,N/A,,Clear,0,2013-05-09 16:15:00
12:35 PM,77.0,41.0,28,29.96,10.0,SW,3.5,-,N/A,,Clear,220,2013-05-09 16:35:00
1:15 PM,78.8,42.8,28,29.96,10.0,South,3.5,-,N/A,,Clear,170,2013-05-09 17:15:00
1:35 PM,78.8,44.6,30,29.95,10.0,Calm,Calm,-,N/A,,Clear,0,2013-05-09 17:35:00
1:55 PM,78.8,44.6,30,29.95,10.0,Calm,Calm,-,N/A,,Clear,0,2013-05-09 17:55:00
2:10 PM,80.6,44.6,28,29.95,10.0,SSW,4.6,-,N/A,,Clear,200,2013-05-09 18:10:00
2:31 PM,78.8,46.4,32,29.94,10.0,West,3.5,-,N/A,,Mostly Cloudy,280,2013-05-09 18:31:00
2:51 PM,78.8,46.4,32,29.93,10.0,South,9.2,-,N/A,,Overcast,190,2013-05-09 18:51:00
3:11 PM,78.8,46.4,32,29.93,10.0,South,4.6,-,N/A,,Scattered Clouds,180,2013-05-09 19:11:00
3:31 PM,80.6,44.6,28,29.92,10.0,SSW,4.6,-,N/A,,Scattered Clouds,210,2013-05-09 19:31:00
3:51 PM,80.6,44.6,28,29.91,10.0,SW,5.8,-,N/A,,Scattered Clouds,230,2013-05-09 19:51:00
4:11 PM,80.6,42.8,26,29.91,10.0,WSW,6.9,-,N/A,,Clear,250,2013-05-09 20:11:00
4:31 PM,80.6,42.8,26,29.90,10.0,Calm,Calm,-,N/A,,Clear,0,2013-05-09 20:31:00
4:51 PM,80.6,42.8,26,29.90,10.0,SSW,4.6,-,N/A,,Clear,210,2013-05-09 20:51:00
5:11 PM,80.6,42.8,26,29.90,10.0,WSW,5.8,-,N/A,,Scattered Clouds,240,2013-05-09 21:11:00
5:31 PM,80.6,44.6,28,29.89,10.0,South,5.8,-,N/A,,Mostly Cloudy,170,2013-05-09 21:31:00
5:52 PM,78.8,44.6,30,29.88,10.0,WSW,5.8,-,N/A,,Mostly Cloudy,240,2013-05-09 21:52:00
6:12 PM,78.8,44.6,30,29.88,10.0,South,6.9,-,N/A,,Clear,190,2013-05-09 22:12:00
6:32 PM,78.8,46.4,32,29.88,10.0,South,4.6,-,N/A,,Scattered Clouds,190,2013-05-09 22:32:00
6:52 PM,78.8,46.4,32,29.88,10.0,SSW,6.9,-,N/A,,Scattered Clouds,200,2013-05-09 22:52:00
7:12 PM,78.8,46.4,32,29.88,10.0,SSW,4.6,-,N/A,,Mostly Cloudy,210,2013-05-09 23:12:00
7:32 PM,77.0,46.4,34,29.88,10.0,South,3.5,-,N/A,,Scattered Clouds,190,2013-05-09 23:32:00
7:52 PM,77.0,44.6,32,29.88,10.0,SW,4.6,-,N/A,,Scattered Clouds,230,2013-05-09 23:52:00
8:12 PM,73.4,46.4,38,29.88,10.0,Calm,Calm,-,N/A,,Clear,0,2013-05-10 00:12:00
8:33 PM,71.6,50.0,46,29.89,10.0,North,6.9,-,N/A,,Clear,360,2013-05-10 00:33:00
8:53 PM,68.0,53.6,60,29.89,10.0,North,6.9,-,N/A,,Scattered Clouds,360,2013-05-10 00:53:00
9:13 PM,68.0,53.6,60,29.89,10.0,East,4.6,-,N/A,,Mostly Cloudy,90,2013-05-10 01:13:00
9:33 PM,69.8,42.8,38,29.89,10.0,ESE,8.1,-,N/A,,Mostly Cloudy,110,2013-05-10 01:33:00
9:53 PM,69.8,42.8,38,29.89,10.0,ESE,5.8,-,N/A,,Mostly Cloudy,110,2013-05-10 01:53:00
10:13 PM,68.0,44.6,43,29.89,10.0,ENE,5.8,-,N/A,,Scattered Clouds,60,2013-05-10 02:13:00
10:33 PM,68.0,44.6,43,29.89,10.0,East,6.9,-,N/A,,Scattered Clouds,90,2013-05-10 02:33:00
10:53 PM,66.2,42.8,43,29.89,10.0,ENE,11.5,-,N/A,,Mostly Cloudy,70,2013-05-10 02:53:00
11:13 PM,64.4,44.6,49,29.89,10.0,NE,9.2,-,N/A,,Overcast,40,2013-05-10 03:13:00
11:54 PM,62.6,44.6,52,29.88,10.0,NE,8.1,-,N/A,,Overcast,40,2013-05-10 03:54:00